Погода в Виннипеге

Канада     49°53′16″N   97°08′03″W
темп.,
°C
ветер,
м/с
пор.,
м/с
влажн.,
%
обл.,
%
осадки,
мм/ч
давл.,
гПа
погр.,
м
22 сентября, ср
ср2201:00+11ююв335146 0.0 102030
04:00+11ю33565 0.0 102035
07:00+10ююз336145 0.0 102028
10:00+16ююз45370 0.0 1018274
13:00+23ю57205 0.0 1016966
16:00+25ююз891611 0.0 10132300
19:00+22ю49210 0.0 1012171
22:00+19ю716304 0.0 1012490
23 сентября, чт
чт2301:00+17ю716370 0.0 1011469
04:00+15ю715455 0.0 1010395
07:00+14ю81748100 0.0 1009448
10:00+17ю81539100 0.0 1009550
13:00+24зюз6823100 0.0 10081310
16:00+24ссз683176 0.0 10091809
19:00+20с3531100 0.0 101070
22:00+16сз3432100 0.0 101252
24 сентября, пт
пт2401:00+15зсз2234100 0.0 101214
04:00+13ссз41041100 0.0 1013221
07:00+13сз4838100 0.0 1015330
10:00+13сз483426 0.0 1016815
13:00+16зсз67280 0.0 10141812
16:00+17сз6823100 0.0 10122172
19:00+15зсз35240 0.0 101371
22:00+10ссз22525 0.0 101311
25 сентября, сб
сб2501:00+9з22555 0.0 101314
04:00+8зюз336060 0.0 101242
07:00+7з364980 0.0 101294
10:00+12зюз4626100 0.0 1011294
13:00+19юз6817100 0.0 1008825
16:00+23зюз681910 0.0 10051340
19:00+20юз4627100 0.0 100491
22:00+18ююз4931100 0.0 1004164
26 сентября, вс
вс2601:00+16ю41033100 0.0 1003191
04:00+14ю4738100 0.0 1002104
07:00+13ююв2242100 0.0 100120
10:00+17ссв213682 0.0 1002260
13:00+22ссв55275 0.0 1003874
16:00+22ссв672918 0.0 10041028
19:00+19ссв485798 0.0 1006221
22:00+14с41067100 0.0 1008203